Terminal Aerodrome Forecast
Issued by NWS Pueblo, CO

Home | Current Version | Previous Version | Text Only | Print | Product List | Glossary On
Versions: 1 2 3 4 5 6 7 8 9 10 11 12 13 14 15 16 17 18 19 20 21 22 23 24 25 26 27 28 29 30 31 32 33 34 35 36 37
000
FTUS45 KPUB 271136
TAFPUB
TAF
KPUB 271136Z 2712/2812 08008KT 4SM -SN BR OVC020
      TEMPO 2712/2716 1SM -SN BR OVC010
     FM271900 11010KT P6SM VCSH BKN030
     FM272300 11007KT P6SM SCT020 BKN040=

USA.gov is the U.S. government's official web portal to all federal, state and local government web resources and services.